[[{"header":{"parameterUnit":"m.s-1","parameterCategory":1,"la1":30.2991,"la2":30.254,"lo1":-89.0895,"lo2":-89.0444,"dy":0.0017,"dx":0.0017,"nx":28,"ny":28,"refTime":"2024-05-18T03:00:00:Z","depth":0,"parameterNumber":2,"parameterNumberName":"U-component_of_WINDS"},"data":[0,0,0,0,0,0,0,0,0,0,0,0,0,0,0,0,0,0,0,0,0,0,0,0,0,0,0,0,0,0,0,0,0,0,0,0,0,0,0,0,0,0,0,0,0,0,0,0,0,0,0,0,0,0,0,0,0,0,-4.4659,-4.466,0,-4.4754,-4.4755,-4.4756,-4.4697,-4.4694,-4.4691,-4.4689,-4.4788,-4.4793,-4.4798,0,0,0,0,0,0,0,0,0,0,0,0,0,-4.4429,-4.4434,-4.4659,-4.466,-4.4661,-4.4754,-4.4755,-4.4756,-4.4697,-4.4694,-4.4691,-4.4687,-4.4786,-4.4792,-4.4799,0,0,0,0,0,0,0,0,0,0,0,0,0,-4.4527,-4.4435,-4.4659,-4.4643,-4.4642,-4.4753,-4.4755,-4.4757,-4.4698,-4.4694,-4.469,-4.4686,-4.4784,-4.4792,-4.4799,-4.4932,0,0,-4.4824,-4.4827,0,0,0,0,0,0,0,0,-4.4522,-4.4536,-4.4644,-4.4644,-4.4644,-4.4709,-4.471,-4.4816,-4.4699,-4.4677,-4.4689,-4.4684,-4.4765,-4.4774,-4.4801,-4.4937,-4.4941,-4.4824,-4.4829,-4.4832,-4.4835,0,0,0,0,0,0,0,-4.4515,-4.4531,-4.4696,-4.4646,-4.4646,-4.4632,-4.4641,-4.473,-4.4744,-4.4679,-4.4675,-4.4686,-4.4764,-4.4794,-4.4803,-4.4942,-4.4824,-4.4831,-4.4836,-4.4839,-4.5192,-4.5197,0,0,0,0,0,0,-4.4509,-4.4526,-4.4693,-4.4699,-4.4571,-4.464,-4.465,-4.4692,-4.4742,-4.4746,-4.469,-4.4683,-4.4783,-4.4794,-4.4807,-4.4965,-4.4832,-4.484,-4.4844,-4.5188,-4.5193,-4.5198,0,0,0,0,0,0,-4.4505,-4.4525,-4.469,-4.4612,-4.4632,-4.4648,-4.4696,-4.4697,-4.4726,-4.4751,-4.4753,-4.4717,-4.478,-4.4796,-4.4901,-4.4967,-4.4843,-4.485,-4.5182,-4.5189,-4.5196,-4.5282,0,0,0,0,0,0,-4.4498,-4.4523,-4.4573,-4.4613,-4.4636,-4.4782,-4.47,-4.4701,-4.4739,-4.4732,-4.4777,-4.4781,-4.4778,-4.489,-4.4909,-4.4976,-4.4857,-4.5176,-4.5185,-4.5193,-4.5273,-4.5291,-4.5306,0,0,0,0,0,-4.449,-4.4593,-4.4576,-4.4596,-4.4698,-4.4786,-4.4799,-4.4792,-4.4745,-4.4795,-4.4812,-4.4779,-4.4958,-4.4901,-4.4922,-4.4992,-4.5172,-4.5183,-4.5193,-4.5266,-4.5288,-4.5306,0,0,0,0,0,0,-4.456,-4.4598,-4.4579,-4.4698,-4.4739,-4.4775,-4.4838,-4.4815,-4.4871,-4.4861,-4.4852,-4.4863,-4.4973,-4.4994,-4.493,-4.5124,-4.5057,-4.5073,-4.5106,-4.5127,-4.5143,-4.5134,-4.4863,0,0,0,0,0,-4.459,-4.4657,-4.4687,-4.4789,-4.4811,-4.4822,-4.486,-4.4851,-4.4894,-4.4911,-4.4935,-4.4978,-4.5043,-4.5086,-4.5148,-4.5277,-4.5286,-4.5336,-4.5353,-4.5366,-4.5379,-4.5449,-4.5471,-4.5233,-4.5233,-4.5232,0,0,-4.4651,-4.468,-4.4723,-4.4804,-4.4835,-4.4905,-4.4836,-4.4914,-4.4966,-4.4923,-4.5023,-4.5043,-4.5091,-4.5209,-4.5262,-4.5229,-4.5447,-4.538,-4.539,-4.5395,-4.5462,-4.5484,-4.5504,-4.524,-4.5238,-4.5237,0,0,-4.4798,-4.4827,-4.4915,-4.4948,-4.4995,-4.5002,-4.5024,-4.5065,-4.5076,-4.5177,-4.5146,-4.521,-4.5323,-4.5358,-4.5391,-4.5555,-4.5527,-4.5576,-4.5661,-4.5729,-4.5748,-4.5764,-4.5822,-4.5843,-4.5588,-4.5589,-4.5589,0,-4.4867,-4.4971,-4.4964,-4.5044,-4.5081,-4.5045,-4.5135,-4.5168,-4.5234,-4.5261,-4.5224,-4.5366,-4.5395,-4.5521,-4.5561,-4.559,-4.5614,-4.5568,-4.5746,-4.5762,-4.5778,-4.5833,-4.5854,-4.5594,-4.5593,-4.5593,-4.5592,0,-4.5055,-4.5128,-4.5194,-4.5258,-4.5303,-4.5388,-4.5394,-4.5441,-4.543,-4.5441,-4.5546,-4.5581,-4.5649,-4.5679,-4.5669,-4.5805,-4.5783,-4.5746,-4.5679,-4.5806,-4.5857,-4.5878,-4.5602,-4.56,-4.5598,-4.5597,0,0,-4.5245,-4.5305,-4.533,-4.5359,-4.541,-4.5467,-4.5552,-4.5618,-4.5658,-4.5706,-4.5777,-4.5875,-4.5842,-4.5879,-4.5874,-4.5934,-4.6062,-4.589,-4.5891,-4.592,-4.6213,-4.6238,-4.6262,-4.6045,-4.6049,-4.6052,-4.6208,0,-4.5394,-4.5539,-4.5536,-4.5672,-4.5739,-4.5709,-4.5782,-4.5823,-4.5837,-4.5897,-4.5913,-4.5982,-4.5934,-4.5956,-4.6015,-4.6033,-4.612,-4.6023,-4.611,-4.6113,-4.6097,-4.6289,-4.6316,-4.6461,-4.6228,-4.6232,-4.6234,0,-4.5585,-4.5639,-4.5781,-4.5824,-4.5853,-4.5918,-4.598,-4.6039,-4.6085,-4.6091,-4.6134,-4.612,-4.6207,-4.6139,-4.6259,-4.6193,-4.623,-4.6245,-4.625,-4.6256,-4.6179,-4.6299,-4.6508,-4.6529,-4.6266,-4.6263,-4.6261,0,-4.5708,-4.5817,-4.5916,-4.5942,-4.5995,-4.6042,-4.6066,-4.6108,-4.6149,-4.6204,-4.6231,-4.6296,-4.6331,-4.6382,-4.6386,-4.6337,-4.6507,-4.644,-4.6515,-4.6515,-4.6549,-4.6547,-4.6765,-4.6577,-4.6577,-4.6576,-4.6576,0,-4.5873,-4.5961,-4.5972,-4.6032,-4.6131,-4.6128,-4.6226,-4.6246,-4.6284,-4.6349,-4.6328,-4.639,-4.6393,-4.6457,-4.6461,-4.656,-4.6576,-4.6584,-4.6584,-4.6585,-4.6583,-4.6606,-4.6596,-4.6582,-4.6581,-4.658,-4.6579,0,-4.6025,-4.6036,-4.6142,-4.6184,-4.6197,-4.6267,-4.6304,-4.6362,-4.6375,-4.6458,-4.6478,-4.6499,-4.6573,-4.6583,-4.667,-4.6673,-4.6792,-4.6782,-4.6775,-4.6773,-4.6847,-4.6839,-4.7086,-4.7118,-4.691,-4.6912,-4.6914,0,-4.6128,-4.6195,-4.6245,-4.6287,-4.6313,-4.6381,-4.6423,-4.6425,-4.6469,-4.6528,-4.658,-4.6652,-4.671,-4.683,-4.6854,-4.6921,-4.6911,-4.6994,-4.6921,-4.692,-4.6911,-4.6906,-4.6913,-4.7006,-4.7009,-4.7011,-4.7012,0,-4.631,-4.6313,-4.6373,-4.6437,-4.6487,-4.6538,-4.6585,-4.6621,-4.6629,-4.668,-4.6756,-4.6801,-4.689,-4.6962,-4.7029,-4.7055,-4.7036,-4.7035,-4.7056,-4.7056,-4.7049,-4.7053,-4.6811,-4.7029,-4.7027,-4.7026,-4.7025,-4.7024,-4.644,-4.6498,-4.6542,-4.6611,-4.6647,-4.6693,-4.675,-4.6771,-4.6833,-4.6905,-4.6904,-4.6987,-4.7034,-4.7121,-4.7153,-4.7218,-4.7192,-4.7222,-4.7229,-4.7236,-4.7242,-4.7041,-4.7231,-4.7231,-4.723,-4.723,-4.7229,0,-4.6619,-4.6647,-4.671,-4.6777,-4.6832,-4.681,-4.6861,-4.6909,-4.6982,-4.7027,-4.7084,-4.7172,-4.7243,-4.7273,-4.7343,-4.739,-4.7383,-4.7408,-4.7403,-4.741,-4.7263,-4.7237,-4.7413,-4.7413,-4.7413,-4.7413,-4.7413,-4.7413,-4.6719,-4.6816,-4.6825,-4.6941,-4.6968,-4.7049,-4.708,-4.7122,-4.7158,-4.7257,-4.7315,-4.7335,-4.7375,-4.7447,-4.7512,-4.7519,-4.7545,-4.7574,-4.7577,-4.7439,-4.742,-4.7402,-4.7378,-4.758,-4.7581,-4.7719,-4.772,-4.7721]},{"header":{"parameterUnit":"m.s-1","parameterCategory":1,"la1":30.2991,"la2":30.254,"lo1":-89.0895,"lo2":-89.0444,"dy":0.0017,"dx":0.0017,"nx":28,"ny":28,"refTime":"2024-05-18T03:00:00:Z","depth":0,"parameterNumber":3,"parameterNumberName":"V-component_of_WINDS"},"data":[0,0,0,0,0,0,0,0,0,0,0,0,0,0,0,0,0,0,0,0,0,0,0,0,0,0,0,0,0,0,0,0,0,0,0,0,0,0,0,0,0,0,0,0,0,0,0,0,0,0,0,0,0,0,0,0,0,0,3.6103,3.6104,0,3.6177,3.6178,3.6179,3.6231,3.6231,3.6232,3.6232,3.6303,3.6305,3.6306,0,0,0,0,0,0,0,0,0,0,0,0,0,3.6002,3.6004,3.6103,3.6104,3.6105,3.6177,3.6178,3.6179,3.6231,3.6231,3.6232,3.6232,3.6303,3.6305,3.6306,0,0,0,0,0,0,0,0,0,0,0,0,0,3.6058,3.6005,3.6102,3.6139,3.6143,3.6177,3.6178,3.6179,3.6231,3.6231,3.6232,3.6232,3.6302,3.6304,3.6307,3.6308,0,0,3.6313,3.6314,0,0,0,0,0,0,0,0,3.6055,3.6062,3.6133,3.6137,3.6141,3.6195,3.6169,3.6222,3.623,3.6197,3.6232,3.6233,3.6267,3.6272,3.6284,3.6311,3.6314,3.6314,3.6315,3.6316,3.6317,0,0,0,0,0,0,0,3.6051,3.6059,3.6132,3.6134,3.6139,3.6151,3.616,3.6179,3.6227,3.62,3.6204,3.6213,3.6269,3.6282,3.6286,3.6315,3.6314,3.6316,3.6317,3.6318,3.6349,3.6348,0,0,0,0,0,0,3.6042,3.6055,3.613,3.6134,3.6099,3.6152,3.6162,3.6177,3.6227,3.6236,3.6212,3.6215,3.6278,3.6283,3.6289,3.6295,3.6316,3.6318,3.6319,3.6349,3.6348,3.6348,0,0,0,0,0,0,3.604,3.6048,3.6127,3.6096,3.6107,3.6153,3.617,3.6178,3.6192,3.6236,3.6245,3.6217,3.6278,3.6286,3.6303,3.6298,3.6319,3.6321,3.635,3.6349,3.6348,3.6306,0,0,0,0,0,0,3.6036,3.6047,3.6049,3.6096,3.6108,3.6141,3.617,3.6179,3.6196,3.62,3.6243,3.625,3.6279,3.63,3.6306,3.6302,3.6323,3.635,3.6349,3.6348,3.6308,3.6304,3.63,0,0,0,0,0,3.6033,3.6032,3.6048,3.6057,3.6112,3.614,3.6147,3.6182,3.6195,3.6197,3.6226,3.6249,3.6298,3.6301,3.6308,3.6305,3.6351,3.635,3.6349,3.631,3.6305,3.63,0,0,0,0,0,0,3.5981,3.6039,3.6057,3.6073,3.6101,3.6149,3.6152,3.6176,3.62,3.6203,3.6244,3.6253,3.6267,3.6287,3.629,3.6309,3.6327,3.6327,3.6295,3.6291,3.6287,3.6282,3.6325,0,0,0,0,0,3.5972,3.5992,3.6041,3.6049,3.6063,3.6105,3.6119,3.6144,3.6174,3.6186,3.6217,3.6244,3.6266,3.628,3.6302,3.6311,3.6322,3.6312,3.6309,3.6305,3.6305,3.6313,3.6309,3.6344,3.6344,3.6344,0,0,3.5952,3.5986,3.5996,3.604,3.6065,3.6084,3.6115,3.6133,3.6148,3.6189,3.6208,3.6231,3.6265,3.6279,3.6287,3.6297,3.6298,3.6304,3.6301,3.6302,3.6311,3.6308,3.6305,3.6343,3.6343,3.6343,0,0,3.5927,3.5954,3.5965,3.5991,3.6029,3.6058,3.606,3.6105,3.6123,3.6143,3.6175,3.6192,3.6228,3.6252,3.6268,3.6253,3.6276,3.6259,3.6239,3.6246,3.6243,3.6241,3.6236,3.6234,3.6259,3.6258,3.6258,0,3.5897,3.5928,3.5967,3.5985,3.6003,3.6044,3.6055,3.6077,3.612,3.6131,3.6143,3.6191,3.6216,3.6237,3.6233,3.6245,3.6249,3.6254,3.6241,3.6239,3.6237,3.6233,3.6232,3.6256,3.6256,3.6257,3.6257,0,3.5891,3.5912,3.5916,3.5959,3.5978,3.5992,3.6032,3.6047,3.607,3.6097,3.6117,3.615,3.618,3.6187,3.6208,3.6211,3.6216,3.6233,3.6252,3.6231,3.6228,3.6227,3.6253,3.6254,3.6255,3.6255,0,0,3.5834,3.59,3.5901,3.5922,3.5968,3.5985,3.6001,3.6033,3.6044,3.6073,3.6087,3.6118,3.6135,3.6153,3.6178,3.6184,3.6172,3.6201,3.6203,3.6195,3.6178,3.6165,3.6163,3.6187,3.6187,3.6187,3.6175,0,3.5816,3.5849,3.5885,3.5905,3.5925,3.5964,3.5978,3.6008,3.6033,3.6053,3.6081,3.6103,3.6123,3.6135,3.6143,3.6172,3.6169,3.6173,3.62,3.6201,3.6192,3.6161,3.6147,3.6135,3.6174,3.6174,3.6174,0,3.58,3.5829,3.5851,3.5898,3.5907,3.5919,3.5952,3.5971,3.6005,3.6023,3.6045,3.6073,3.6091,3.6107,3.6133,3.6135,3.6148,3.6164,3.6165,3.6169,3.6186,3.6165,3.6131,3.613,3.6172,3.6172,3.6172,0,3.5758,3.5802,3.5822,3.5838,3.5892,3.59,3.5922,3.5958,3.5975,3.6003,3.6014,3.6043,3.6059,3.608,3.6115,3.6123,3.6137,3.6156,3.6152,3.6151,3.6154,3.6153,3.6122,3.6161,3.6161,3.6161,3.6161,0,3.5735,3.5747,3.5804,3.5816,3.5831,3.5872,3.5886,3.5911,3.5942,3.596,3.5994,3.6009,3.6053,3.6073,3.61,3.6118,3.6124,3.6139,3.6146,3.6137,3.6135,3.6146,3.6148,3.616,3.616,3.6161,3.6161,0,3.569,3.5729,3.5753,3.5803,3.5816,3.5825,3.5867,3.588,3.5908,3.593,3.5937,3.598,3.6006,3.6043,3.6078,3.6096,3.611,3.6121,3.6099,3.6104,3.6099,3.6099,3.6075,3.6074,3.6112,3.6111,3.6111,0,3.5674,3.5684,3.5736,3.5751,3.5773,3.5796,3.5815,3.5856,3.5873,3.5914,3.5922,3.5951,3.5976,3.6015,3.6049,3.6077,3.6089,3.6079,3.6093,3.6084,3.609,3.6089,3.6091,3.6075,3.6075,3.6074,3.6074,0,3.564,3.5659,3.5685,3.5718,3.574,3.5768,3.5797,3.5806,3.5853,3.5871,3.5899,3.5919,3.5957,3.5985,3.6018,3.604,3.6064,3.6069,3.607,3.606,3.6048,3.6056,3.6091,3.6069,3.607,3.607,3.607,3.607,3.561,3.5622,3.5661,3.5689,3.5716,3.5742,3.5757,3.5788,3.5813,3.5848,3.587,3.5897,3.5932,3.5979,3.6,3.6021,3.6031,3.6032,3.6032,3.6032,3.6029,3.6044,3.6027,3.6027,3.6027,3.6027,3.6028,0,3.5579,3.5606,3.5632,3.5673,3.5695,3.5718,3.5751,3.5768,3.5792,3.5823,3.5848,3.588,3.5908,3.5945,3.5975,3.5985,3.5997,3.5991,3.5991,3.5996,3.6018,3.6015,3.5981,3.5981,3.5981,3.5981,3.5981,3.5981,3.5565,3.5588,3.5611,3.5647,3.5674,3.5702,3.5719,3.5744,3.5769,3.5805,3.5829,3.5853,3.5887,3.592,3.5946,3.5956,3.5966,3.5957,3.5971,3.599,3.5995,3.5999,3.5996,3.5959,3.5959,3.5948,3.5947,3.5947]}]]